Location: UMBC
(39.2555°N, 76.7093°W)
Time: 00:59:46
(UTC+01:00)

Amateur Radio Satellites - All Passes

Search period start: 25 March 2017 00:29
Search period end: 26 March 2017 00:29
Location: UMBC, 39.2555°N, 76.7093°W

Satellite Date Start Highest point End Downlink Frequencies (MHz)
Time Altitude Azimuth
SEEDS 25 Mar 00:29:55 00:33:29 28° 70° (ENE) 00:37:04 437.485
CUTE 1.7 + AOD 2 25 Mar 00:31:56 00:35:58 47° 73° (ENE) 00:40:01 437.475
CUTE-I 25 Mar 00:57:00 01:00:35 18° 268° (W) 01:04:12 437.470
UWE-3 25 Mar 00:58:21 01:02:18 28° 70° (ENE) 01:06:14 435.000/436.395/437.385
NUDT-PHONESAT 25 Mar 00:58:47 00:58:53 10° 269° (W) 00:58:58 437.300
M-CUBED/EXP-1 PRIME 25 Mar 00:59:17 01:03:50 58° 291° (WNW) 01:08:25 437.505
CUBEBUG 2 25 Mar 01:26:21 01:31:06 89° 77° (ENE) 01:35:53 437.445
PCSat 25 Mar 01:27:18 01:32:38 57° 246° (WSW) 01:37:55 145.827
STRAND 1 25 Mar 01:33:26 01:38:34 79° 103° (ESE) 01:43:39 437.568
Oscar 11 25 Mar 01:40:54 01:44:47 34° 71° (ENE) 01:48:41 .
RS-15 25 Mar 01:40:57 01:51:41 32° 34° (NNE) 02:02:02 29.354- 29.394
XW-2A 25 Mar 01:43:24 01:45:16 14° 267° (W) 01:47:08 145.665 - 145.685
ZACube-1 25 Mar 01:43:41 01:48:04 49° 73° (ENE) 01:52:26 437.345
AAUSAT CUBESAT 2 25 Mar 01:55:53 01:59:54 57° 260° (W) 02:03:57 437.432
YUBILEINY 25 Mar 02:00:12 02:07:47 35° 275° (W) 02:15:24 435.215
DELFI C3 25 Mar 02:01:29 02:03:51 16° 67° (ENE) 02:06:14 145.870
SEEDS 25 Mar 02:05:57 02:09:09 21° 266° (W) 02:12:22 437.485
CUTE 1.7 + AOD 2 25 Mar 02:09:59 02:12:02 13° 269° (W) 02:14:05 437.475
AO-73 25 Mar 02:13:13 02:17:46 87° 253° (WSW) 02:22:19 145.935
HO-68 25 Mar 02:18:12 02:23:36 23° 267° (W) 02:29:03 435.675
AO-85 25 Mar 02:20:14 02:24:21 36° 116° (ESE) 02:28:14 145.980
ISS 25 Mar 02:25:06 02:28:04 34° 135° (SE) 02:31:05 437.550
UWE-3 25 Mar 02:34:39 02:38:39 28° 264° (W) 02:42:39 435.000/436.395/437.385
Tancredo 1 25 Mar 02:34:47 02:37:51 49° 138° (SE) 02:40:57 437.200
PRISM 25 Mar 03:09:00 03:12:37 28° 97° (E) 03:16:13 437.425
TIGRISAT 25 Mar 03:10:21 03:12:34 14° 91° (E) 03:14:45 435.000
STRAND 1 25 Mar 03:14:51 03:17:03 13° 300° (WNW) 03:19:14 437.568
Oscar 11 25 Mar 03:17:51 03:20:59 19° 266° (W) 03:24:07 .
UNISAT 6 25 Mar 03:19:05 03:22:14 19° 93° (E) 03:25:18 437.425
ZACube-1 25 Mar 03:21:56 03:24:34 15° 268° (W) 03:27:12 437.345
DELFI C3 25 Mar 03:34:45 03:38:20 35° 262° (W) 03:41:58 145.870
ESTCUBE 1 25 Mar 03:41:24 03:44:13 17° 65° (ENE) 03:47:01 437.505/2401.250
FO-29 25 Mar 03:45:46 03:50:28 24° 91° (E) 03:54:49 435.910
RS-15 25 Mar 03:53:39 04:06:01 90° 60° (ENE) 04:17:45 29.354- 29.394
AO-85 25 Mar 04:01:20 04:04:48 23° 310° (NW) 04:08:07 145.980
ISS 25 Mar 04:01:43 04:04:34 27° 332° (NNW) 04:07:27 437.550
Tancredo 1 25 Mar 04:11:38 04:14:11 21° 335° (NNW) 04:16:42 437.200
LO-87 25 Mar 04:12:41 04:16:14 66° 76° (ENE) 04:19:49 145.935 - 145.965
BEESAT 3 25 Mar 04:19:45 04:23:36 65° 119° (ESE) 04:27:32 437.485
SPROUT 25 Mar 04:27:27 04:29:23 13° 64° (ENE) 04:31:20 437.525
BEESAT 2 25 Mar 04:31:08 04:34:38 31° 114° (ESE) 04:38:12 435.950
POLYITAN 1 25 Mar 04:43:38 04:45:02 11° 91° (E) 04:46:27 437.675
PRISM 25 Mar 04:44:30 04:47:44 22° 292° (WNW) 04:50:57 437.425
TIGRISAT 25 Mar 04:45:16 04:49:33 49° 287° (WNW) 04:53:43 435.000
QB50P2 25 Mar 04:47:22 04:49:38 14° 92° (E) 04:51:55 145.880/145.840
DX 1 25 Mar 04:48:38 04:49:39 11° 62° (ENE) 04:50:39 434.975-435.025
UNISAT 6 25 Mar 04:54:59 04:59:03 36° 289° (WNW) 05:03:00 437.425
VELOX 1 25 Mar 05:01:27 05:05:27 36° 70° (ENE) 05:09:30 145.980
AIST 2D 25 Mar 05:01:48 05:04:58 32° 97° (E) 05:08:06 435.315
DUCHIFAT 1 25 Mar 05:02:27 05:05:02 16° 93° (E) 05:07:38 145.980
SO-50 25 Mar 05:10:35 05:14:48 39° 52° (NE) 05:19:00 436.795
ESTCUBE 1 25 Mar 05:16:21 05:20:38 45° 261° (W) 05:24:57 437.505/2401.250
50 SAT 25 Mar 05:19:48 05:22:50 30° 72° (ENE) 05:25:54 437.505
FO-29 25 Mar 05:30:07 05:35:51 44° 292° (WNW) 05:41:01 435.910
UKube-1 25 Mar 05:30:17 05:33:34 22° 67° (ENE) 05:36:51 .
ISS 25 Mar 05:41:07 05:41:55 11° 351° (N) 05:42:45 437.550
NANOSAT C BR1 25 Mar 05:46:09 05:50:20 58° 101° (E) 05:54:27 145.865
EO-79 25 Mar 05:49:23 05:53:38 70° 102° (ESE) 05:57:50 145.935-145.965
BEESAT 3 25 Mar 05:59:38 06:01:37 13° 316° (NW) 06:03:37 437.485
SPROUT 25 Mar 06:00:35 06:04:47 56° 259° (W) 06:09:03 437.525
RS-15 25 Mar 06:08:20 06:16:43 23° 261° (W) 06:24:53 29.354- 29.394
BEESAT 2 25 Mar 06:09:16 06:12:26 22° 311° (NW) 06:15:39 435.950
POLYITAN 1 25 Mar 06:17:00 06:21:09 55° 286° (WNW) 06:25:15 437.675
DX 1 25 Mar 06:20:53 06:25:12 71° 258° (WSW) 06:29:34 434.975-435.025
QB50P2 25 Mar 06:21:36 06:25:39 44° 287° (WNW) 06:29:40 145.880/145.840
Oscar 19 25 Mar 06:35:12 06:38:49 19° 93° (E) 06:42:26 437.125/150
AIST 2D 25 Mar 06:36:09 06:37:52 13° 293° (WNW) 06:39:36 435.315
DUCHIFAT 1 25 Mar 06:36:56 06:40:52 39° 288° (WNW) 06:44:46 145.980
VELOX 1 25 Mar 06:38:50 06:41:59 19° 266° (W) 06:45:10 145.980
ITUPSAT 1 25 Mar 06:43:37 06:44:46 11° 60° (ENE) 06:45:55 437.325
SO-50 25 Mar 06:51:36 06:55:00 21° 249° (WSW) 06:58:23 436.795
50 SAT 25 Mar 06:54:15 06:55:59 13° 267° (W) 06:57:42 437.505
BUGSAT 1 25 Mar 07:00:48 07:04:57 65° 286° (WNW) 07:09:02 437.445
UKube-1 25 Mar 07:05:34 07:09:23 31° 263° (W) 07:13:15 .
ISS 25 Mar 07:18:19 07:19:36 12° 12° (NNE) 07:20:53 437.550
NANOSAT C BR1 25 Mar 07:23:52 07:25:31 12° 297° (WNW) 07:27:09 145.865
Tancredo 1 25 Mar 07:27:08 07:28:36 12° 15° (NNE) 07:30:04 437.200
EO-79 25 Mar 07:28:14 07:28:46 10° 298° (WNW) 07:29:19 145.935-145.965
O/OREOS (USA 219) 25 Mar 07:55:23 07:59:19 27° 60° (ENE) 08:03:12 437.305
BEESAT 25 Mar 08:02:10 08:06:55 70° 74° (ENE) 08:11:41 436.000
AO-7 25 Mar 08:11:09 08:15:52 16° 91° (E) 08:20:34 .
Gurwin Techsat 1B 25 Mar 08:12:24 08:17:46 89° 284° (WNW) 08:23:05 435.225
Oscar 19 25 Mar 08:13:24 08:18:22 49° 289° (WNW) 08:23:20 437.125/150
ITUPSAT 1 25 Mar 08:17:04 08:21:52 84° 256° (WSW) 08:26:42 437.325
ITAMSAT 1 25 Mar 08:18:20 08:21:31 16° 92° (E) 08:24:41 435.822/435.867
KKS-1 25 Mar 08:33:35 08:35:33 13° 63° (ENE) 08:37:32 437.445
MOZHAYETS 4 25 Mar 08:35:53 08:40:26 61° 74° (ENE) 08:44:58
ISS 25 Mar 08:53:44 08:56:49 36° 31° (NNE) 08:59:54 437.550
Tancredo 1 25 Mar 09:02:16 09:05:22 46° 33° (NNE) 09:08:29 437.200
STARS 25 Mar 09:14:16 09:16:50 15° 64° (ENE) 09:19:25 437.465
CUBESAT XI-V 25 Mar 09:23:41 09:27:42 31° 70° (ENE) 09:31:44 437.345
O/OREOS (USA 219) 25 Mar 09:34:42 09:38:39 29° 257° (WSW) 09:42:37 437.305
BEESAT 25 Mar 09:43:43 09:45:08 11° 270° (W) 09:46:35 436.000
Gurwin Techsat 1B 25 Mar 09:55:09 09:56:54 12° 301° (WNW) 09:58:37 435.225
ITAMSAT 1 25 Mar 09:56:14 10:01:19 57° 288° (WNW) 10:06:22 435.822/435.867
AO-7 25 Mar 10:01:18 10:09:38 87° 107° (ESE) 10:17:56 .
KKS-1 25 Mar 10:07:09 10:11:33 62° 259° (W) 10:16:00 437.445
M-CUBED/EXP-1 PRIME 25 Mar 10:12:40 10:14:11 12° 57° (ENE) 10:15:44 437.505
MOZHAYETS 4 25 Mar 10:16:08 10:17:57 12° 270° (W) 10:19:46
ISS 25 Mar 10:30:27 10:33:10 24° 227° (SW) 10:35:52 437.550
Tancredo 1 25 Mar 10:39:08 10:41:16 17° 229° (SW) 10:43:24 437.200
STARS 25 Mar 10:48:28 10:52:45 49° 260° (W) 10:57:03 437.465
AO-85 25 Mar 10:52:30 10:55:36 22° 49° (NE) 10:58:45 145.980
CUBESAT XI-V 25 Mar 11:01:23 11:05:04 24° 265° (W) 11:08:47 437.345
STRAND 1 25 Mar 11:12:44 11:14:47 12° 60° (ENE) 11:16:51 437.568
CUTE-I 25 Mar 11:33:47 11:38:01 23° 94° (E) 11:42:12 437.470
M-CUBED/EXP-1 PRIME 25 Mar 11:44:37 11:48:05 49° 256° (WSW) 11:51:53 437.505
DOVE 4 25 Mar 11:46:01 11:51:11 49° 98° (E) 11:56:14 437.250
NO-84 25 Mar 11:51:41 11:53:25 15° 127° (SE) 11:55:08 435.350 FM
LilacSat-2 25 Mar 11:54:09 11:57:43 39° 98° (E) 12:01:15 437.200
AO-7 25 Mar 11:55:37 12:01:22 21° 307° (NW) 12:07:08 .
XW-2F 25 Mar 11:55:56 11:59:25 38° 98° (E) 12:02:54 145.980 - 146.000
HO-68 25 Mar 12:01:39 12:02:59 11° 87° (E) 12:04:19 435.675
XW-2D 25 Mar 12:20:36 12:24:22 90° 135° (SE) 12:28:05 145.860 - 145.880
NUDT-PHONESAT 25 Mar 12:26:17 12:29:59 82° 102° (ESE) 12:33:39 437.300
XW-2B 25 Mar 12:26:30 12:30:15 79° 284° (WNW) 12:33:58 145.730 - 145.750
KAITUO 1B 25 Mar 12:31:24 12:35:06 85° 285° (WNW) 12:38:48 145.475/437.950
AO-85 25 Mar 12:32:30 12:36:00 31° 245° (WSW) 12:39:37 145.980
XW-2C 25 Mar 12:36:40 12:40:21 56° 285° (WNW) 12:44:00 145.795 - 145.815
BEESAT 3 25 Mar 12:37:44 12:41:13 27° 51° (NE) 12:44:40 437.485
STRAND 1 25 Mar 12:48:04 12:53:14 82° 256° (WSW) 12:58:25 437.568
BEESAT 2 25 Mar 12:50:07 12:52:47 17° 46° (NE) 12:55:28 435.950
YUBILEINY 25 Mar 13:02:10 13:10:39 57° 91° (E) 13:19:06 435.215
XW-2A 25 Mar 13:04:46 13:07:54 34° 98° (E) 13:10:59 145.665 - 145.685
CUTE-I 25 Mar 13:13:10 13:18:11 42° 290° (WNW) 13:23:09 437.470
CUBEBUG 2 25 Mar 13:19:28 13:22:41 20° 93° (E) 13:25:48 437.445
DOVE 4 25 Mar 13:24:32 13:28:26 21° 295° (WNW) 13:32:19 437.250
NO-84 25 Mar 13:28:07 13:30:44 31° 322° (NW) 13:33:20 435.350 FM
LilacSat-2 25 Mar 13:29:49 13:31:37 13° 294° (WNW) 13:33:26 437.200
XW-2F 25 Mar 13:31:22 13:33:13 13° 293° (WNW) 13:35:04 145.980 - 146.000
AAUSAT CUBESAT 2 25 Mar 13:39:23 13:42:40 22° 95° (E) 13:45:57 437.432
HO-68 25 Mar 13:44:35 13:51:47 74° 104° (ESE) 13:58:56 435.675
SEEDS 25 Mar 13:49:25 13:53:35 64° 101° (ESE) 13:57:44 437.485
CUTE 1.7 + AOD 2 25 Mar 13:53:10 13:57:22 73° 285° (WNW) 14:01:34 437.475
FO-29 25 Mar 13:57:45 14:01:37 15° 57° (ENE) 14:05:22 435.910
PRISM 25 Mar 13:57:54 14:00:42 18° 67° (ENE) 14:03:31 437.425
AO-73 25 Mar 14:03:24 14:06:20 18° 93° (E) 14:09:12 145.935
TIGRISAT 25 Mar 14:08:25 14:10:28 13° 63° (ENE) 14:12:32 435.000
BEESAT 3 25 Mar 14:15:24 14:18:43 25° 247° (WSW) 14:22:00 437.485
UNISAT 6 25 Mar 14:17:01 14:20:01 17° 65° (ENE) 14:23:01 437.425
UWE-3 25 Mar 14:24:45 14:29:03 65° 101° (E) 14:33:13 435.000/436.395/437.385
PCSat 25 Mar 14:25:57 14:29:56 21° 106° (ESE) 14:33:57 145.827
BEESAT 2 25 Mar 14:26:54 14:30:50 49° 243° (WSW) 14:34:43 435.950
XW-2A 25 Mar 14:39:02 14:40:18 12° 293° (WNW) 14:41:35 145.665 - 145.685
CUBEBUG 2 25 Mar 14:55:23 14:59:23 34° 289° (WNW) 15:03:15 437.445
JUGNU 25 Mar 14:55:58 14:56:46 10° 175° (S) 14:57:34 437.505
YUBILEINY 25 Mar 15:00:26 15:07:51 30° 290° (WNW) 15:15:17 435.215
Oscar 11 25 Mar 15:04:29 15:08:49 82° 104° (ESE) 15:13:06 .
ZACube-1 25 Mar 15:09:11 15:13:23 67° 285° (WNW) 15:17:31 437.345
DELFI C3 25 Mar 15:12:42 15:16:09 28° 96° (E) 15:19:35 145.870
AAUSAT CUBESAT 2 25 Mar 15:14:35 15:18:05 27° 290° (WNW) 15:21:34 437.432
SEEDS 25 Mar 15:27:44 15:28:42 11° 296° (WNW) 15:29:40 437.485
PRISM 25 Mar 15:32:03 15:35:43 33° 262° (W) 15:39:26 437.425
HO-68 25 Mar 15:33:38 15:38:46 22° 302° (WNW) 15:43:55 435.675
AIST 2D 25 Mar 15:37:11 15:38:18 11° 66° (ENE) 15:39:25 435.315
FO-29 25 Mar 15:37:41 15:45:30 73° 73° (ENE) 15:52:55 435.910
AO-73 25 Mar 15:38:51 15:42:40 33° 289° (WNW) 15:46:23 145.935
QB50P2 25 Mar 15:40:54 15:41:30 10° 62° (ENE) 15:42:07 145.880/145.840
TIGRISAT 25 Mar 15:41:53 15:46:34 68° 259° (WSW) 15:51:15 435.000
UNISAT 6 25 Mar 15:51:46 15:56:18 49° 260° (W) 16:00:52 437.425
DUCHIFAT 1 25 Mar 15:54:40 15:55:59 11° 63° (ENE) 15:57:18 145.980
UWE-3 25 Mar 16:03:44 16:04:52 11° 298° (WNW) 16:06:01 435.000/436.395/437.385
PCSat 25 Mar 16:07:41 16:12:55 50° 302° (WNW) 16:18:14 145.827
RS-15 25 Mar 16:10:45 16:15:35 13° 94° (E) 16:20:29 29.354- 29.394
NANOSAT C BR1 25 Mar 16:36:57 16:40:52 36° 71° (ENE) 16:44:47 145.865
EO-79 25 Mar 16:40:24 16:44:27 44° 73° (ENE) 16:48:32 145.935-145.965
DELFI C3 25 Mar 16:47:48 16:50:46 20° 291° (WNW) 16:53:44 145.870
AIST 2D 25 Mar 17:07:46 17:11:08 41° 261° (W) 17:14:31 435.315
POLYITAN 1 25 Mar 17:07:49 17:12:06 88° 251° (WSW) 17:16:26 437.675
ESTCUBE 1 25 Mar 17:09:37 17:13:51 38° 98° (E) 17:18:03 437.505/2401.250
QB50P2 25 Mar 17:12:24 17:16:40 72° 259° (WSW) 17:20:58 145.880/145.840
LO-87 25 Mar 17:13:58 17:17:38 83° 284° (WNW) 17:21:16 145.935 - 145.965
FO-29 25 Mar 17:25:04 17:30:54 23° 268° (W) 17:36:37 435.910
DUCHIFAT 1 25 Mar 17:26:52 17:31:05 64° 259° (W) 17:35:20 145.980
SPROUT 25 Mar 17:47:41 17:51:16 25° 95° (E) 17:54:48 437.525
BUGSAT 1 25 Mar 17:48:42 17:52:54 73° 75° (ENE) 17:57:10 437.445
Oscar 19 25 Mar 17:50:58 17:55:06 26° 66° (ENE) 17:59:16 437.125/150
Gurwin Techsat 1B 25 Mar 17:55:04 17:58:21 17° 62° (ENE) 18:01:39 435.225
DX 1 25 Mar 18:10:42 18:14:03 21° 95° (E) 18:17:22 434.975-435.025
RS-15 25 Mar 18:13:46 18:25:31 68° 114° (ESE) 18:37:41 29.354- 29.394
NANOSAT C BR1 25 Mar 18:13:47 18:16:40 18° 267° (W) 18:19:34 145.865
50 SAT 25 Mar 18:17:34 18:20:52 38° 99° (E) 18:24:09 437.505
EO-79 25 Mar 18:17:59 18:20:25 15° 268° (W) 18:22:51 145.935-145.965
NO-84 25 Mar 18:25:51 18:27:08 12° 27° (NNE) 18:28:27 435.350 FM
VELOX 1 25 Mar 18:28:10 18:32:40 85° 103° (ESE) 18:37:07 145.980
SRMSAT 25 Mar 18:43:42 18:45:10 11° 183° (S) 18:46:38 437.500
ESTCUBE 1 25 Mar 18:47:09 18:50:21 19° 294° (WNW) 18:53:33 437.505/2401.250
UKube-1 25 Mar 18:53:00 18:57:08 43° 99° (E) 19:01:16 .
AO-7 25 Mar 19:08:57 19:15:11 24° 55° (NE) 19:21:25 .
SPROUT 25 Mar 19:23:32 19:27:05 26° 291° (WNW) 19:30:37 437.525
SO-50 25 Mar 19:25:18 19:28:05 16° 109° (ESE) 19:30:51 436.795
Oscar 19 25 Mar 19:29:32 19:34:14 36° 262° (W) 19:38:57 437.125/150
Gurwin Techsat 1B 25 Mar 19:32:29 19:37:45 63° 259° (WSW) 19:43:02 435.225
ITAMSAT 1 25 Mar 19:34:56 19:39:03 24° 65° (ENE) 19:43:11 435.822/435.867
DX 1 25 Mar 19:46:20 19:50:15 33° 290° (WNW) 19:54:10 434.975-435.025
50 SAT 25 Mar 19:52:13 19:53:32 12° 294° (WNW) 19:54:53 437.505
NO-84 25 Mar 20:01:50 20:05:05 80° 41° (NE) 20:08:39 435.350 FM
BEESAT 25 Mar 20:04:15 20:07:37 19° 94° (E) 20:10:57 436.000
ITUPSAT 1 25 Mar 20:19:05 20:23:05 26° 96° (E) 20:27:03 437.325
RS-15 25 Mar 20:27:37 20:38:50 42° 318° (NW) 20:50:23 29.354- 29.394
UKube-1 25 Mar 20:30:05 20:32:48 17° 295° (WNW) 20:35:31 .
MOZHAYETS 4 25 Mar 20:33:16 20:35:54 15° 92° (E) 20:38:32
AO-7 25 Mar 20:58:45 21:07:06 78° 253° (WSW) 21:15:28 .
SO-50 25 Mar 21:03:32 21:08:06 55° 305° (NW) 21:12:37 436.795
ITAMSAT 1 25 Mar 21:13:20 21:18:15 41° 261° (W) 21:23:11 435.822/435.867
BEESAT 25 Mar 21:41:04 21:45:33 42° 289° (WNW) 21:50:00 436.000
ITUPSAT 1 25 Mar 21:56:43 22:00:52 30° 291° (WNW) 22:04:59 437.325
KKS-1 25 Mar 21:59:27 22:03:14 26° 96° (E) 22:06:59 437.445
O/OREOS (USA 219) 25 Mar 22:06:25 22:10:31 35° 105° (ESE) 22:14:40 437.305
MOZHAYETS 4 25 Mar 22:08:56 22:13:19 48° 287° (WNW) 22:17:40
LilacSat-2 25 Mar 22:35:42 22:38:21 18° 68° (ENE) 22:40:59 437.200
XW-2F 25 Mar 22:36:40 22:39:09 17° 68° (ENE) 22:41:37 145.980 - 146.000
STARS 25 Mar 22:38:56 22:42:52 30° 97° (E) 22:46:44 437.465
RS-15 25 Mar 22:47:38 22:56:10 20° 351° (N) 23:04:42 29.354- 29.394
DOVE 4 25 Mar 22:50:16 22:54:34 40° 71° (ENE) 22:59:09 437.250
CUTE-I 25 Mar 22:54:18 22:59:08 35° 68° (ENE) 23:03:59 437.470
AO-7 25 Mar 22:57:19 23:01:01 13° 271° (W) 23:04:43 .
CUBESAT XI-V 25 Mar 22:57:34 23:02:14 89° 95° (E) 23:06:55 437.345
XW-2D 25 Mar 23:00:43 23:04:11 34° 73° (ENE) 23:07:39 145.860 - 145.880
NUDT-PHONESAT 25 Mar 23:04:41 23:07:58 29° 72° (ENE) 23:11:15 437.300
XW-2B 25 Mar 23:06:30 23:10:04 39° 73° (ENE) 23:13:39 145.730 - 145.750
KAITUO 1B 25 Mar 23:10:19 23:13:45 35° 73° (ENE) 23:17:11 145.475/437.950
YUBILEINY 25 Mar 23:14:11 23:21:12 26° 68° (ENE) 23:28:11 435.215
PCSat 25 Mar 23:14:17 23:17:45 17° 45° (NE) 23:21:14 145.827
XW-2C 25 Mar 23:16:27 23:20:11 54° 75° (ENE) 23:23:55 145.795 - 145.815
M-CUBED/EXP-1 PRIME 25 Mar 23:25:12 23:27:24 13° 96° (E) 23:29:36 437.505
KKS-1 25 Mar 23:35:55 23:39:42 27° 292° (WNW) 23:43:28 437.445
XW-2A 25 Mar 23:37:09 23:38:10 11° 66° (ENE) 23:39:12 145.665 - 145.685
O/OREOS (USA 219) 25 Mar 23:46:29 23:50:00 22° 302° (WNW) 23:53:33 437.305
LilacSat-2 26 Mar 00:09:03 00:12:24 29° 263° (W) 00:15:47 437.200
XW-2F 26 Mar 00:09:40 00:13:03 30° 263° (W) 00:16:26 145.980 - 146.000
HO-68 26 Mar 00:11:50 00:18:38 49° 67° (ENE) 00:25:26 435.675
STARS 26 Mar 00:15:32 00:19:01 23° 293° (WNW) 00:22:29 437.465
CUBEBUG 2 26 Mar 00:16:32 00:19:36 17° 65° (ENE) 00:22:39 437.445
